Voltar ao catálogo

STARLINK-5642

AtivoComunicaçõesVLEO
NORAD 55430·PAYLOAD·🇺🇸 United States

Lançado Jan 31, 2023 de Vandenberg Space Force Base

Loading…

Próximas Passagens (próximas 24 horas)

TLE

AtualizadoSource: CelesTrak SupGP

Época: Sep 15, 2026, 02:49 UTC

1 55430C 23014AR  26258.11784722  .00072093  00000+0  60423-2 0  2587
2 55430  70.0020 346.7619 0003720 266.4662 148.3463 14.98288818    15

Acompanhe STARLINK-5642 em tempo real com AllMySat

Download on the App Store